Overview Statistics Trail Chart Weather Telemetry Raw packets
 

This is the latest recevied weather packets stored in our database for station/object W4MLN-3. If no packets are shown the sender has not sent any weather packets the latest 10 day(s).

<< 34 35 36 37 38 39 40 >>
Time Temp. Humidity Pressure Rain* Wind** Luminosity Snow
1788269724 21.67° C 88% 1024.4 hPa 0.25 mm - - -
1788269403 21.11° C 92% 1024.4 hPa 0.25 mm - - -
1788269103 21.11° C 95% 1024.4 hPa 0 mm - - -
1788268824 20.56° C 97% 1024.4 hPa 0 mm - - -
1788268503 20° C 97% 1024.4 hPa 0 mm - - -
1788268203 20° C 98% 1024.4 hPa 0 mm - - -
1788267903 20° C 98% 1024.4 hPa 0 mm - - -
1788267603 19.44° C 98% 1024.5 hPa 0 mm - - -
1788267303 19.44° C 98% 1024.4 hPa 0 mm - - -
1788267003 18.89° C 98% 1024.5 hPa 0 mm - - -
1788266703 18.89° C 98% 1024.5 hPa 0 mm - - -
1788266403 18.89° C 98% 1024.5 hPa 0 mm - - -
1788266103 18.33° C 98% 1024.4 hPa 0 mm - - -
1788265803 18.33° C 98% 1024.4 hPa 0 mm - - -
1788265503 17.78° C 97% 1024.4 hPa 0 mm - - -
1788265203 17.78° C 97% 1024.2 hPa 0 mm - - -
1788264903 17.78° C 97% 1024.2 hPa 0 mm - - -
1788264603 17.78° C 97% 1024.1 hPa 0 mm - - -
1788264324 17.22° C 97% 1024.1 hPa 0 mm - - -
1788264025 17.22° C 97% 1024 hPa 0 mm - - -
1788263703 17.22° C 97% 1024 hPa 0 mm - - -
1788263403 17.22° C 97% 1024 hPa 0 mm - - -
1788263103 16.67° C 97% 1024 hPa 0 mm - - -
1788262803 16.67° C 97% 1023.9 hPa 0 mm - - -
1788262503 16.67° C 97% 1023.8 hPa 0 mm - - -

* Rain latest hour (hover to see other rain measurements)
** Current wind speed in m/s (hover to see current wind gust speed)